Preview of NWS' New Version of Forecast
This preview is not operational and should not be used for support decisions.

Regional Weather Roundup (RWR)

Issued by National Weather Service (NWS)

                            
000
ASUS45 KABQ 181810
RWRNM 
NEW MEXICO REGIONAL WEATHER ROUNDUP
NATIONAL WEATHER SERVICE ALBUQUERQUE NM
1200 PM MDT MON MAR 18 2019

NOTE: "FAIR" MEANS FEW OR NO CLOUDS BELOW 12,000 FEET AGL WITH NO
       SIGNIFICANT WEATHER OR OBSTRUCTIONS TO VISION.

      THIS PRODUCT IS RELEASED AS TWO VERSIONS.  ONE VERSION NEAR
      THE TOP OF THE HOUR CONTAINING PRELIMINARY DATA FROM ALBUQUERQUE
      AND OTHER STATIONS.  A FINAL VERSION WITH ADDITIONAL DATA IS 
      ISSUED ABOUT 10 MINUTES AFTER THE HOUR.
 
NMZ501-503-504-510>518-181900-
NORTHWEST PLATEAU/NORTHCENTRAL MOUNTAINS
  
CITY           SKY/WX    TMP DP  RH WIND       PRES   REMARKS
FARMINGTON     FAIR      55  27  34 E7        30.20F                  
6HR MIN TEMP:  31; 6HR MAX TEMP:  55;                                

LOS ALAMOS     FAIR      46  22  38 S12G18    30.30F                  
SANTA FE       FAIR      51  24  34 S9        30.27F                  
6HR MIN TEMP:  27; 6HR MAX TEMP:  51;                                

TAOS           PTSUNNY   48  25  40 VRB3      30.29F                  
ANGEL FIRE       N/A     41  21  46 CALM      30.28F                  

$$
NMZ402-403-502-505>509-181900-
WESTCENTRAL MOUNTAINS/SOUTHWEST MOUNTAINS
  
CITY           SKY/WX    TMP DP  RH WIND       PRES   REMARKS
GALLUP         FAIR      54  29  38 S10       30.22F                  
6HR MIN TEMP:  25; 6HR MAX TEMP:  55;                                

GRANTS         FAIR      52  26  36 SE15G22   30.27F                  
SILVER CITY    FAIR      56  25  31 SE17G25   30.25S                  

$$
NMZ407-409-411-412-181900-
SOUTHERN DESERTS
  
CITY           SKY/WX    TMP DP  RH WIND       PRES   REMARKS
DEMING         FAIR      60  27  28 SE14G22   30.22F                  
6HR MIN TEMP:  38; 6HR MAX TEMP:  60;                                

LAS CRUCES     FAIR      61  28  28 SE14G22   30.25S                  
HOLLOMAN AFB   FAIR      57  28  33 W8        30.26F                  
ALAMOGORDO     FAIR      57  27  30 SW5       30.25F                  
T OR C         FAIR      57  27  31 CALM      30.24F                  
6HR MIN TEMP:  38; 6HR MAX TEMP:  58;                                


$$
NMZ519>523-181900-
CENTRAL VALLEYS/CENTRAL HIGHLANDS
  
CITY           SKY/WX    TMP DP  RH WIND       PRES   REMARKS
ALBUQUERQUE    FAIR      55  22  27 SE12G20   30.25F                  
6HR MIN TEMP:  40; 6HR MAX TEMP:  56;                                

DOUBLE EAGLE   MOSUNNY   54  25  32 SE13      30.28F                  
MORIARTY ARPT  FAIR      53  24  31 S12G18    30.31S                  
6HR MIN TEMP:  23; 6HR MAX TEMP:  53;                                

CLINES CORNERS FAIR      48  23  37 SE13G21   30.30F                  
6HR MIN TEMP:  28; 6HR MAX TEMP:  48;                                

BELEN          FAIR      56  23  27 E7        30.26F                  
6HR MIN TEMP:  30; 6HR MAX TEMP:  56;                                

SOCORRO        FAIR      56  26  31 CALM      30.25F                  
6HR MIN TEMP:  34; 6HR MAX TEMP:  57;                                


$$
NMZ524>526-539-540-181900-
SOUTHCENTRAL MOUNTAINS
  
CITY           SKY/WX    TMP DP  RH WIND       PRES   REMARKS
RUIDOSO        PTSUNNY   46  23  39 SE14G23   30.33S                  

$$
NMZ527>531-181900-
NORTHEAST HIGHLANDS/NORTHEAST PLAINS
  
CITY           SKY/WX    TMP DP  RH WIND       PRES   REMARKS
LAS VEGAS      FAIR      49  16  26 S14G23    30.29F                  
6HR MIN TEMP:  22; 6HR MAX TEMP:  49;                                

RATON          FAIR      51  24  34 S16G22    30.25F                  
6HR MIN TEMP:  25; 6HR MAX TEMP:  52;                                

CLAYTON        FAIR      49  30  48 VRB7      30.28F                  
6HR MIN TEMP:  32; 6HR MAX TEMP:  49;                                


$$
NMZ532>537-181900-
EASTCENTRAL PLAINS
  
CITY           SKY/WX    TMP DP  RH WIND       PRES   REMARKS
SANTA ROSA     FAIR      55  25  31 SE8G16    30.29F                  
TUCUMCARI      FAIR      56  29  35 VRB6      30.28F                  
6HR MIN TEMP:  32; 6HR MAX TEMP:  56;                                

CANNON AFB     SUNNY     55  23  28 S8        30.31F                  
6HR MIN TEMP:  32; 6HR MAX TEMP:  56;                                

CLOVIS AIRPORT FAIR      56  26  31 N5        30.31F                  

$$
NMZ028-029-538-181900-
SOUTHEAST PLAINS
  
CITY           SKY/WX    TMP DP  RH WIND       PRES   REMARKS
ROSWELL        FAIR      57  29  34 CALM      30.29F                  
6HR MIN TEMP:  35; 6HR MAX TEMP:  59;                                

ARTESIA        FAIR      55  28  35 SE7       30.30F                  
CARLSBAD       FAIR      53  28  38 VRB3      30.29F                  
6HR MIN TEMP:  35; 6HR MAX TEMP:  53;                                

HOBBS          MOSUNNY   59  27  29 SE14      30.29F                  


$$